Overview Statistics Trail Chart Weather Telemetry Raw packets
 

This is the latest recevied weather packets stored in our database for station/object WA6ODQ-13. If no packets are shown the sender has not sent any weather packets the latest 10 day(s).

<< 84 85 86 87 88 89 90 >>
Time Temp. Humidity Pressure Rain* Wind** Luminosity Snow
1788051440 27.22° C 45% 1009.6 hPa 0 mm - 151 W/m² -
1788051133 27.78° C 44% 1009.5 hPa 0 mm - 164 W/m² -
1788050833 27.22° C 44% 1009.5 hPa 0 mm - 177 W/m² -
1788050529 27.78° C 43% 1009.5 hPa 0 mm - 190 W/m² -
1788050223 27.78° C 41% 1009.5 hPa 0 mm - 203 W/m² -
1788049919 28.33° C 41% 1009.6 hPa 0 mm - 216 W/m² -
1788049615 27.78° C 42% 1009.4 hPa 0 mm - 230 W/m² -
1788049311 28.33° C 41% 1009.4 hPa 0 mm - 244 W/m² -
1788049011 28.33° C 41% 1009.6 hPa 0 mm - 259 W/m² -
1788048707 28.89° C 41% 1009.6 hPa 0 mm - 272 W/m² -
1788048405 28.89° C 40% 1009.6 hPa 0 mm - 285 W/m² -
1788048098 28.89° C 40% 1009.7 hPa 0 mm - 299 W/m² -
1788047795 29.44° C 41% 1009.6 hPa 0 mm - 313 W/m² -
1788047490 29.44° C 40% 1009.6 hPa 0 mm - 327 W/m² -
1788047185 29.44° C 39% 1009.5 hPa 0 mm - 340 W/m² -
1788046875 29.44° C 39% 1009.6 hPa 0 mm - 353 W/m² -
1788046574 29.44° C 39% 1009.6 hPa 0 mm - 367 W/m² -
1788046269 29.44° C 39% 1009.7 hPa 0 mm - 381 W/m² -
1788045967 29.44° C 40% 1009.8 hPa 0 mm - 391 W/m² -
1788045662 29.44° C 40% 1009.7 hPa 0 mm - 404 W/m² -
1788045356 30° C 40% 1009.6 hPa 0 mm - 417 W/m² -
1788045051 30° C 40% 1009.8 hPa 0 mm - 429 W/m² -
1788044750 29.44° C 42% 1009.8 hPa 0 mm - 442 W/m² -
1788044441 30° C 39% 1009.8 hPa 0 mm - 457 W/m² -
1788044140 30° C 41% 1009.8 hPa 0 mm - 467 W/m² -

* Rain latest hour (hover to see other rain measurements)
** Current wind speed in m/s (hover to see current wind gust speed)